Temp
-9 -10 -10 -10 -11 -11 -11 -11 -11 -11 -11 -10 -11 -10 -10 -10 -10 -10 -10 -10 -10 -10 -10 -10 -10 -10 -10 -10 -10 -10 -10 -9 -9 -9 -9 -9 -9 -9 -9 -8 -8 -8 -8
-9 -10 -10 -10 -10 -11 -11 -10 -10 -10 -10 -10 -10 -10 -10 -10 -10 -10 -10 -10 -10 -10 -10 -10 -10 -10 -10 -10 -10 -10 -10 -10 -9 -9 -9 -9 -9 -9 -9 -9 -9 -8 -8
-9 -9 -9 -10 -10 -11 -11 -10 -9 -10 -10 -10 -10 -10 -10 -9 -9 -10 -10 -10 -10 -10 -10 -10 -10 -10 -10 -10 -10 -10 -10 -10 -10 -10 -9 -9 -9 -9 -9 -9 -9 -9 -9
-10 -9 -9 -10 -10 -10 -11 -11 -10 -10 -10 -10 -9 -10 -10 -10 -10 -10 -9 -9 -10 -10 -10 -10 -10 -10 -10 -10 -10 -10 -10 -10 -10 -10 -10 -9 -9 -9 -9 -9 -9 -9 -9
-10 -10 -10 -10 -10 -10 -10 -11 -10 -10 -10 -10 -10 -10 -10 -10 -10 -10 -10 -9 -10 -10 -10 -10 -10 -10 -10 -10 -10 -10 -10 -10 -10 -10 -10 -10 -10 -10 -10 -9 -10 -10 -10
-11 -10 -10 -10 -10 -10 -10 -11 -11 -10 -10 -10 -10 -10 -10 -10 -10 -11 -10 -10 -10 -10 -10 -10 -10 -11 -11 -11 -11 -10 -10 -10 -11 -10 -10 -10 -10 -10 -10 -10 -10 -10 -10
-11 -11 -11 -11 -10 -10 -11 -11 -11 -10 -10 -10 -10 -10 -10 -10 -10 -10 -11 -10 -10 -10 -10 -10 -10 -11 -11 -11 -11 -11 -10 -10 -10 -10 -11 -11 -10 -10 -10 -10 -10 -10 -10
-11 -11 -11 -11 -11 -11 -11 -11 -11 -11 -11 -10 -10 -10 -10 -11 -11 -11 -11 -10 -10 -10 -11 -10 -10 -11 -11 -11 -11 -11 -11 -11 -11 -10 -10 -10 -11 -11 -11 -11 -11 -11 -10
-11 -11 -11 -11 -11 -11 -11 -11 -11 -11 -12 -11 -11 -11 -11 -11 -11 -10 -11 -11 -11 -10 -10 -10 -11 -11 -11 -11 -11 -11 -11 -11 -11 -11 -11 -10 -11 -11 -11 -11 -11 -11 -11
-12 -11 -11 -11 -12 -11 -11 -11 -12 -11 -12 -11 -11 -11 -11 -11 -11 -12 -11 -11 -11 -10 -11 -11 -11 -11 -12 -12 -12 -11 -11 -12 -11 -11 -11 -11 -11 -11 -11 -11 -11 -11 -11
-11 -12 -12 -12 -12 -12 -11 -11 -12 -12 -12 -12 -11 -11 -11 -11 -11 -12 -12 -12 -12 -11 -11 -11 -12 -12 -11 -11 -11 -11 -11 -12 -12 -12 -12 -12 -11 -11 -11 -11 -11 -11 -11
-12 -11 -12 -12 -12 -12 -12 -12 -12 -12 -11 -11 -12 -12 -12 -12 -12 -11 -12 -12 -12 -12 -12 -12 -12 -12 -12 -12 -12 -12 -11 -12 -12 -12 -12 -12 -12 -12 -12 -12 -11 -11 -11
-12 -11 -12 -12 -12 -12 -13 -12 -12 -12 -12 -12 -12 -12 -12 -12 -12 -12 -12 -12 -12 -12 -12 -12 -12 -12 -12 -13 -13 -12 -12 -12 -12 -12 -12 -12 -12 -12 -12 -12 -12 -12 -12
-12 -12 -12 -12 -12 -13 -13 -13 -13 -13 -13 -13 -13 -12 -12 -12 -13 -13 -13 -13 -13 -13 -13 -13 -13 -13 -13 -13 -13 -13 -13 -13 -13 -13 -13 -13 -12 -12 -13 -13 -12 -12 -12
-12 -12 -12 -13 -13 -13 -13 -13 -13 -13 -13 -13 -13 -13 -13 -13 -13 -13 -13 -13 -13 -13 -13 -13 -13 -13 -13 -13 -13 -13 -13 -13 -13 -13 -13 -13 -13 -13 -13 -13 -13 -13 -13
-13 -13 -14 -13 -13 -13 -13 -13 -13 -13 -13 -13 -13 -13 -13 -13 -13 -13 -13 -13 -13 -14 -13 -13 -13 -13 -13 -13 -13 -13 -13 -14 -13 -13 -13 -13 -13 -13 -14 -14 -14 -13 -13
-14 -13 -14 -14 -14 -14 -14 -13 -13 -14 -14 -14 -14 -14 -14 -14 -14 -14 -13 -13 -13 -14 -14 -14 -14 -14 -14 -13 -13 -14 -14 -14 -14 -14 -13 -13 -13 -13 -14 -14 -14 -14 -14
-14 -14 -14 -15 -14 -14 -14 -14 -14 -14 -14 -14 -14 -14 -14 -14 -14 -14 -14 -13 -13 -14 -14 -14 -14 -14 -14 -13 -13 -14 -14 -14 -14 -14 -13 -13 -13 -13 -13 -13 -14 -14 -14
-15 -15 -15 -15 -15 -15 -14 -15 -14 -14 -14 -14 -14 -14 -14 -14 -14 -14 -14 -14 -14 -14 -14 -14 -14 -14 -14 -14 -14 -14 -14 -14 -14 -14 -14 -13 -13 -13 -13 -13 -13 -13 -13
-14 -15 -15 -15 -16 -16 -15 -15 -15 -14 -14 -14 -14 -14 -14 -14 -14 -14 -14 -15 -15 -15 -15 -15 -15 -15 -15 -15 -15 -15 -14 -14 -14 -14 -14 -14 -13 -13 -13 -13 -13 -13 -13
-15 -15 -16 -16 -16 -16 -16 -15 -15 -15 -16 -15 -15 -15 -15 -15 -15 -15 -15 -15 -15 -15 -15 -15 -15 -15 -15 -15 -15 -15 -15 -15 -15 -14 -14 -14 -14 -13 -13 -14 -13 -13 -13
-16 -16 -16 -16 -16 -16 -16 -16 -16 -16 -16 -16 -15 -16 -16 -15 -15 -15 -15 -15 -15 -15 -15 -16 -16 -16 -16 -16 -16 -15 -15 -15 -15 -15 -15 -15 -14 -14 -14 -14 -14 -14 -14
-16 -16 -16 -16 -16 -16 -17 -16 -16 -16 -16 -16 -16 -16 -16 -17 -16 -16 -15 -15 -16 -16 -16 -16 -16 -16 -16 -16 -16 -16 -16 -15 -16 -15 -15 -15 -15 -15 -15 -15 -15 -15 -15
-17 -17 -17 -16 -16 -17 -17 -17 -17 -17 -16 -16 -16 -16 -16 -17 -17 -17 -16 -16 -16 -16 -16 -16 -16 -16 -16 -17 -16 -16 -16 -16 -16 -16 -16 -16 -15 -15 -15 -15 -15 -15 -15
-18 -18 -18 -17 -17 -17 -17 -17 -17 -17 -17 -17 -16 -16 -16 -17 -17 -17 -16 -16 -16 -16 -16 -16 -16 -17 -17 -17 -17 -17 -17 -17 -17 -17 -16 -16 -16 -16 -16 -16 -16 -16 -15
-17 -19 -18 -18 -19 -17 -17 -17 -18 -19 -18 -17 -17 -17 -17 -16 -17 -16 -17 -16 -16 -16 -16 -16 -16 -17 -17 -17 -17 -17 -17 -17 -17 -17 -17 -16 -16 -16 -16 -16 -16 -16 -16
Height
5816 5816 5816 5816 5816 5816 5817 5819 5820 5821 5824 5825 5827 5827 5828 5830 5833 5836 5836 5839 5841 5842 5844 5845 5847 5848 5849 5851 5853 5854 5856 5858 5859 5861 5861 5862 5863 5864 5865 5866 5867 5869 5870
5814 5813 5814 5815 5815 5814 5814 5816 5817 5817 5821 5822 5823 5823 5823 5826 5829 5832 5834 5836 5838 5839 5841 5843 5845 5847 5848 5850 5852 5854 5856 5858 5859 5860 5862 5862 5863 5864 5865 5866 5867 5869 5870
5812 5811 5811 5813 5814 5814 5813 5813 5814 5815 5817 5818 5818 5819 5819 5822 5826 5830 5832 5833 5835 5837 5839 5840 5842 5844 5846 5849 5851 5853 5855 5856 5858 5860 5861 5863 5864 5864 5866 5867 5868 5869 5869
5809 5809 5809 5810 5811 5812 5811 5811 5811 5812 5814 5814 5814 5815 5817 5819 5823 5828 5828 5830 5832 5835 5837 5838 5841 5843 5846 5848 5850 5851 5853 5855 5857 5859 5861 5862 5863 5864 5865 5867 5868 5869 5869
5805 5805 5805 5806 5808 5810 5809 5810 5810 5810 5811 5810 5813 5814 5815 5817 5820 5824 5827 5826 5830 5833 5835 5837 5840 5841 5844 5847 5849 5850 5852 5854 5856 5857 5859 5861 5862 5863 5864 5866 5867 5868 5869
5802 5802 5802 5802 5803 5805 5807 5807 5808 5809 5809 5809 5810 5812 5814 5815 5818 5819 5822 5825 5829 5831 5832 5835 5837 5839 5842 5845 5847 5849 5851 5853 5854 5856 5857 5859 5860 5861 5863 5865 5866 5867 5869
5798 5797 5798 5798 5798 5800 5803 5803 5805 5807 5807 5808 5808 5810 5811 5813 5816 5818 5820 5823 5825 5827 5830 5832 5834 5836 5839 5842 5844 5847 5849 5851 5853 5855 5856 5857 5859 5860 5861 5864 5865 5866 5867
5794 5794 5795 5796 5795 5796 5798 5800 5801 5802 5804 5804 5805 5807 5809 5810 5813 5816 5818 5820 5822 5823 5825 5828 5830 5832 5835 5838 5841 5844 5846 5848 5850 5852 5855 5856 5857 5859 5860 5861 5863 5864 5866
5789 5790 5790 5791 5792 5792 5793 5796 5797 5799 5801 5801 5801 5802 5804 5806 5809 5811 5814 5817 5819 5819 5821 5823 5826 5828 5831 5835 5838 5840 5843 5845 5847 5849 5851 5854 5855 5857 5858 5860 5861 5862 5864
5780 5783 5783 5784 5786 5787 5788 5790 5792 5793 5796 5796 5797 5798 5800 5802 5804 5806 5809 5812 5814 5814 5816 5818 5821 5824 5828 5831 5835 5838 5841 5843 5845 5846 5848 5850 5853 5853 5855 5857 5859 5860 5861
5772 5775 5777 5778 5779 5782 5782 5784 5786 5787 5789 5791 5791 5793 5795 5797 5799 5802 5805 5807 5809 5810 5813 5815 5818 5821 5824 5827 5831 5834 5837 5839 5841 5843 5845 5847 5849 5851 5851 5852 5855 5857 5859
5763 5766 5769 5773 5773 5775 5776 5778 5779 5780 5783 5786 5788 5789 5790 5792 5794 5797 5800 5803 5805 5807 5809 5812 5814 5817 5820 5822 5825 5828 5830 5833 5836 5838 5841 5844 5845 5846 5847 5849 5852 5852 5854
5755 5756 5760 5764 5767 5768 5769 5770 5771 5773 5776 5779 5781 5784 5785 5787 5790 5792 5795 5797 5800 5803 5805 5808 5810 5812 5815 5816 5819 5822 5825 5827 5830 5832 5835 5838 5840 5840 5844 5847 5847 5848 5850
5746 5748 5750 5754 5758 5760 5761 5763 5765 5766 5768 5771 5774 5777 5779 5781 5784 5786 5789 5792 5794 5798 5800 5803 5805 5807 5809 5811 5813 5816 5820 5822 5825 5827 5828 5830 5833 5836 5838 5840 5841 5843 5846
5737 5739 5742 5743 5747 5751 5753 5755 5757 5759 5760 5763 5765 5769 5772 5775 5777 5780 5783 5787 5789 5792 5794 5797 5799 5802 5804 5806 5809 5812 5814 5817 5819 5821 5822 5825 5827 5830 5832 5833 5836 5837 5840
5724 5728 5731 5734 5736 5740 5743 5745 5748 5751 5753 5755 5757 5760 5764 5767 5770 5773 5776 5781 5783 5786 5788 5790 5794 5797 5800 5799 5802 5807 5808 5811 5813 5814 5816 5819 5822 5824 5827 5828 5830 5832 5832
5712 5716 5718 5722 5726 5730 5732 5736 5739 5741 5744 5746 5749 5752 5755 5758 5761 5765 5768 5774 5775 5774 5780 5783 5786 5789 5793 5794 5797 5800 5802 5805 5807 5808 5810 5814 5815 5818 5821 5821 5822 5825 5827
5699 5703 5707 5709 5714 5719 5722 5725 5728 5731 5734 5737 5740 5743 5746 5750 5753 5756 5760 5763 5767 5771 5772 5775 5778 5781 5784 5786 5790 5792 5795 5798 5799 5802 5804 5807 5810 5811 5814 5815 5817 5819 5821
5689 5690 5692 5698 5701 5705 5710 5713 5717 5721 5724 5727 5730 5733 5737 5740 5744 5746 5750 5754 5758 5761 5763 5767 5770 5773 5775 5777 5781 5784 5787 5790 5792 5794 5796 5799 5802 5805 5807 5809 5811 5813 5815
5676 5677 5680 5683 5688 5692 5698 5701 5705 5710 5714 5717 5721 5724 5727 5730 5733 5737 5740 5744 5749 5751 5754 5757 5760 5763 5766 5769 5772 5774 5777 5780 5783 5786 5788 5791 5793 5796 5798 5801 5803 5806 5808
5661 5666 5668 5671 5676 5681 5686 5690 5694 5699 5702 5707 5711 5714 5717 5721 5723 5727 5731 5734 5738 5741 5744 5747 5751 5753 5756 5759 5762 5764 5767 5770 5773 5776 5779 5782 5784 5786 5788 5791 5794 5797 5799
5645 5651 5655 5659 5663 5668 5673 5678 5682 5685 5690 5695 5698 5703 5707 5711 5714 5717 5720 5724 5727 5731 5734 5737 5740 5743 5746 5749 5751 5754 5756 5760 5762 5765 5768 5771 5773 5776 5778 5780 5783 5786 5788
5629 5635 5640 5645 5650 5654 5659 5665 5669 5673 5677 5682 5687 5691 5696 5699 5703 5707 5710 5713 5716 5719 5722 5725 5729 5732 5735 5737 5740 5743 5745 5749 5751 5753 5756 5758 5761 5764 5767 5769 5771 5774 5776
5615 5618 5625 5630 5635 5640 5644 5651 5655 5661 5665 5669 5673 5676 5680 5686 5690 5694 5698 5701 5704 5707 5711 5713 5716 5719 5722 5724 5727 5730 5733 5736 5738 5741 5744 5747 5749 5751 5754 5756 5759 5762 5764
5598 5602 5607 5613 5620 5625 5630 5634 5640 5646 5650 5654 5658 5662 5667 5671 5676 5680 5684 5688 5692 5695 5698 5700 5703 5707 5709 5712 5715 5717 5720 5722 5725 5728 5731 5734 5736 5738 5741 5744 5746 5749 5752
5580 5586 5591 5597 5602 5610 5615 5619 5624 5631 5635 5640 5644 5648 5652 5656 5660 5664 5669 5673 5676 5680 5684 5687 5690 5693 5696 5698 5701 5704 5706 5709 5711 5714 5717 5719 5722 5725 5728 5731 5734 5736 5738
Wind_Speed
12 12 10 10 9 8 9 13 16 21 23 18 19 20 20 18 18 15 16 15 16 16 15 15 15 14 14 14 12 11 9 8 7 7 8 8 8 9 9 9 9 9 9
13 13 13 12 11 9 10 12 17 20 21 19 19 21 24 21 20 18 15 19 20 18 17 19 19 17 15 14 14 13 10 10 10 9 8 9 9 9 10 9 10 10 10
16 15 15 14 14 13 7 5 13 17 16 15 19 19 23 21 21 18 15 22 22 20 20 19 24 22 19 16 14 13 12 13 9 10 10 9 9 9 9 9 10 10 10
19 17 15 16 16 16 14 9 11 12 13 13 18 18 23 22 20 17 14 21 21 18 17 14 15 19 20 16 15 15 14 13 9 9 10 10 10 9 8 9 9 9 9
21 20 18 17 18 18 18 14 9 10 14 10 15 20 20 20 21 22 28 14 18 18 21 19 16 17 18 16 15 15 14 13 12 11 10 11 10 10 9 8 8 9 8
24 22 21 18 19 21 21 21 17 14 14 11 14 16 17 20 21 20 27 27 24 22 19 18 19 18 18 17 15 13 13 12 11 11 12 10 9 10 11 9 9 9 8
24 23 22 21 20 23 23 24 22 19 16 15 15 18 22 22 20 21 25 24 24 23 25 23 24 22 21 19 17 15 13 13 13 13 12 11 12 11 11 10 10 9 9
24 22 23 23 24 22 25 24 25 21 19 18 19 21 20 21 23 21 22 22 23 22 27 28 26 23 23 21 19 18 17 16 15 15 14 14 13 12 13 12 12 12 11
27 24 22 23 25 25 24 26 26 25 22 22 24 24 22 20 27 23 28 28 19 38 31 29 25 27 24 23 22 21 20 19 18 18 17 17 16 15 15 13 13 12 11
31 27 25 24 25 27 27 26 27 27 25 30 28 29 28 25 22 19 20 23 26 26 28 27 25 22 21 20 20 19 20 21 21 21 20 19 17 16 16 16 16 15 14
34 31 29 27 26 26 29 30 26 29 32 30 34 29 31 31 28 25 24 27 25 21 20 22 22 22 22 23 23 23 25 25 24 23 22 21 20 18 14 16 18 18 17
36 36 32 31 28 27 29 32 30 31 31 32 35 35 33 33 33 30 28 28 27 25 23 24 24 25 26 26 26 26 26 27 27 25 25 24 22 23 21 18 15 16 17
41 40 37 34 31 30 29 31 33 32 32 31 31 35 35 33 31 30 29 28 28 27 25 26 25 26 28 28 29 30 29 30 31 31 30 28 24 28 24 21 20 22 22
44 42 38 38 35 32 32 32 33 33 33 32 32 34 35 34 33 31 28 26 29 28 28 29 29 30 31 30 28 29 31 31 32 32 32 33 33 31 29 29 28 30 28
45 45 42 40 38 34 35 34 33 34 35 35 34 33 35 35 35 33 32 27 27 30 30 31 29 27 28 31 32 29 29 30 30 31 32 34 34 33 31 33 32 30 29
46 47 47 45 41 38 37 35 35 35 37 38 37 37 35 36 38 37 36 32 33 31 29 33 31 30 29 22 30 31 32 29 29 31 32 33 32 34 34 35 33 31 30
48 48 48 49 46 41 38 39 38 36 37 39 40 39 39 37 38 40 40 37 37 31 38 35 36 34 36 38 34 32 32 32 31 31 31 30 33 31 31 33 35 35 35
48 50 51 52 51 49 43 41 40 39 38 39 41 41 41 40 38 39 40 41 40 33 42 40 40 38 38 37 36 35 35 35 35 34 33 33 33 31 30 29 29 29 29
50 52 54 53 52 52 48 45 43 42 40 39 40 41 41 41 40 40 41 41 42 41 39 38 39 39 37 37 36 35 35 35 35 35 35 35 35 33 32 30 30 30 29
55 56 56 57 55 51 51 49 46 44 41 38 40 41 41 41 41 41 42 42 42 40 38 39 39 39 39 39 39 39 39 39 39 39 38 38 37 36 35 34 34 33 33
56 58 59 58 56 53 51 51 47 46 44 43 42 40 41 42 42 42 42 42 42 41 41 40 40 41 41 41 42 42 42 43 43 42 42 41 41 41 41 40 39 39 39
57 56 57 59 57 55 53 52 50 49 49 47 45 45 46 45 45 44 44 44 44 44 44 44 44 45 45 45 45 46 46 46 46 46 46 46 46 46 46 46 45 44 44
61 58 55 56 58 57 53 54 52 51 51 52 53 51 50 47 48 49 49 49 49 48 48 48 49 48 48 49 49 49 49 49 49 50 50 49 49 49 49 49 49 48 48
59 62 58 57 55 56 55 56 52 51 52 52 56 54 53 55 56 54 54 53 53 53 54 52 52 52 51 51 52 52 52 52 52 52 52 51 52 52 52 52 52 51 51
58 61 64 60 59 59 57 58 62 66 62 59 60 59 58 59 60 61 59 59 59 59 59 58 57 56 55 54 54 54 55 55 54 53 54 54 54 53 53 52 52 52 53
62 59 61 65 65 61 63 61 61 59 60 62 63 62 62 63 63 64 64 65 65 64 63 62 62 62 61 60 59 58 57 57 56 55 55 55 55 54 54 53 53 54 54
Wind_Direction
267 263 258 260 266 269 274 263 239 228 233 233 251 245 233 228 230 234 215 215 208 201 202 198 195 187 181 179 178 179 185 180 174 163 158 160 157 150 149 156 148 147 143
261 256 254 253 260 258 280 261 241 234 233 246 244 242 229 225 223 220 224 207 211 206 206 203 198 186 185 180 177 175 186 190 172 172 174 165 159 158 159 156 149 149 148
262 253 247 247 251 263 248 248 237 239 234 239 239 242 216 216 221 209 222 212 208 208 210 213 204 193 183 189 189 188 192 189 180 178 181 182 166 160 163 161 156 155 153
262 256 249 241 246 249 237 256 242 239 212 239 228 238 208 205 208 201 223 221 202 206 221 209 203 198 190 196 196 193 199 197 194 185 189 187 184 173 174 167 164 168 163
265 255 249 242 241 245 237 247 235 221 223 224 220 226 204 199 204 201 201 183 203 208 217 201 192 185 193 200 201 200 201 206 198 196 191 192 190 187 189 185 180 182 177
270 256 249 245 240 240 234 237 241 228 222 226 206 209 207 209 211 205 199 202 201 212 208 208 205 200 198 202 204 204 204 210 213 202 202 201 199 202 199 195 194 195 188
274 264 252 244 241 237 238 232 239 241 229 229 208 208 215 210 196 206 205 210 213 214 218 217 212 204 204 203 202 204 209 209 214 219 214 209 213 214 212 207 207 204 192
276 273 266 252 243 242 238 237 236 237 233 220 214 204 216 205 204 207 207 211 231 217 221 225 215 213 205 205 207 206 209 213 213 217 221 223 225 220 218 213 215 215 207
275 274 273 265 251 246 243 238 239 241 228 218 216 205 204 210 213 218 215 220 217 222 224 217 218 215 208 209 209 209 211 213 215 217 220 222 227 226 225 223 218 220 215
271 267 266 264 257 248 248 243 236 240 234 226 225 225 230 231 227 250 241 231 233 208 190 196 200 204 210 214 218 221 221 223 223 221 220 220 222 228 231 229 230 229 227
268 265 264 263 259 251 246 249 244 238 240 238 242 229 233 241 249 263 263 256 246 234 219 219 219 221 224 228 230 231 231 232 229 229 227 226 228 230 225 221 226 231 235
259 265 260 260 258 251 244 243 247 246 241 244 244 246 247 247 253 256 255 247 242 237 228 231 230 230 231 227 227 228 233 228 226 228 229 230 229 230 230 218 221 224 226
258 258 261 257 255 253 245 242 242 247 247 242 243 244 245 246 244 246 246 245 238 237 232 227 227 231 233 236 235 234 227 226 225 228 229 227 224 228 230 235 233 228 227
256 256 258 258 252 251 247 244 242 243 246 245 241 241 245 245 243 238 237 236 243 240 237 238 237 237 237 237 236 236 236 233 235 236 233 230 230 233 235 240 244 242 240
254 254 255 253 249 247 246 245 244 243 244 245 245 242 241 243 243 240 238 232 239 238 238 240 241 238 244 244 239 236 236 237 237 238 237 239 236 236 237 240 242 244 243
246 247 251 250 245 241 241 241 242 243 243 245 246 246 243 240 239 237 235 233 243 229 235 235 234 226 223 230 235 230 236 235 238 238 241 240 239 239 242 245 240 239 241
244 242 242 244 244 240 236 240 241 240 241 242 245 246 247 242 239 236 234 226 226 237 235 235 233 229 229 234 238 236 234 232 234 237 238 236 240 239 236 237 240 243 244
242 240 240 242 243 242 239 235 236 239 240 239 242 244 246 246 240 236 231 225 225 219 236 233 234 235 234 236 237 236 235 237 237 239 238 236 238 240 239 238 238 240 244
242 237 236 238 241 241 239 235 234 235 238 239 240 241 243 244 241 236 230 227 226 230 233 234 235 235 235 236 237 238 238 239 239 239 240 239 239 240 240 240 239 239 239
243 236 234 234 236 236 237 235 232 233 234 239 240 238 240 242 240 235 232 232 232 234 236 238 240 241 241 241 242 242 243 243 243 243 242 243 244 244 243 243 243 244 244
241 240 234 234 234 235 238 237 234 233 233 233 235 238 238 238 238 236 234 234 236 238 241 242 243 244 244 245 245 246 246 245 245 245 245 245 246 248 249 249 248 248 249
237 239 238 237 235 235 236 238 236 233 231 228 227 231 236 239 237 237 238 239 240 241 242 245 246 247 247 248 249 249 249 249 250 250 249 249 248 248 249 251 252 253 253
237 236 236 237 236 234 233 237 237 234 233 230 229 241 231 237 240 240 240 242 243 244 243 245 246 248 250 251 252 252 252 252 251 251 251 252 252 253 253 253 253 254 255
239 234 234 234 234 234 229 231 236 234 233 233 235 231 228 236 239 239 243 245 244 245 247 247 249 249 249 251 253 254 255 254 254 254 253 253 254 254 254 255 256 256 256
234 237 231 231 234 233 231 228 234 238 236 236 234 231 232 236 244 240 238 241 244 246 248 248 249 250 252 253 254 255 255 255 255 255 255 255 255 255 255 256 257 258 258
236 232 235 232 227 233 231 229 227 225 235 238 236 239 241 245 240 238 238 241 243 243 246 249 250 251 252 253 254 256 255 255 255 255 255 255 255 256 256 256 256 257 258